CW5834 Weather Reports


time (UTC)temp
F
wind
direction
speed
knots
gust
knots
rain 1hr
in
rain 24hr
in
rain mn
in
humidity
%
barometer
mb
20210927071522 50 0.0 0.0 0.00 0.00 0.00 95 1021.8
20210927070517 50 0.0 0.0 0.00 0.00 0.00 95 1021.9
20210927065520 50 0.0 0.0 0.00 0.00 0.00 95 1022.0
20210927064522 50 0.0 0.0 0.00 0.00 0.00 95 1022.0
20210927063522 50 0.0 0.0 0.00 0.00 0.00 95 1022.0
20210927062522 50 0.0 0.0 0.00 0.00 0.00 95 1022.0
20210927061522 50 0.0 0.0 0.00 0.00 0.00 95 1021.9
20210927060522 50 0.0 0.0 0.00 0.00 0.00 95 1021.9
20210927055517 50 0.0 0.0 0.00 0.00 0.00 95 1021.9
20210927054522 50 0.0 0.0 0.00 0.00 0.00 95 1021.9
20210927053522 50 0.0 0.0 0.00 0.00 0.00 95 1021.8
20210927052522 50 0.0 0.0 0.00 0.00 0.00 95 1021.6
20210927051522 50 0.0 0.0 0.00 0.00 0.00 94 1021.8
20210927050522 50 0.0 0.0 0.00 0.00 0.00 94 1021.8
20210927045517 50 0.0 0.0 0.00 0.00 0.00 94 1021.7
20210927044517 51 0.0 0.0 0.00 0.00 0.00 94 1021.8
20210927043522 51 0.0 0.0 0.00 0.00 0.00 94 1021.7
20210927042522 51 0.0 0.0 0.00 0.00 0.00 94 1021.8
20210927041522 51 0.0 0.0 0.00 0.00 0.00 93 1021.6
20210927040522 51 0.0 0.0 0.00 0.00 0.00 93 1021.6
20210927035520 51 0.0 0.0 0.00 0.00 0.00 93 1021.3
20210927034520 51 0.0 0.0 0.00 0.00 0.00 93 1021.3
20210927033518 52 0.0 0.0 0.00 0.00 0.00 93 1021.4
20210927032517 52 0.0 0.0 0.00 0.00 0.00 93 1021.4
20210927031522 52 0.0 0.0 0.00 0.00 0.00 92 1021.4
20210927030522 52 0.0 0.0 0.00 0.00 0.00 92 1021.4
20210927025522 52 0.0 0.0 0.00 0.00 0.00 92 1021.4
20210927024522 52 0.0 0.0 0.00 0.00 0.00 92 1021.4
20210927023522 53 0.0 0.0 0.00 0.00 0.00 91 1021.3
20210927022517 53 0.0 0.0 0.00 0.00 0.00 92 1021.3
20210927021522 53 0.0 0.0 0.00 0.00 0.00 91 1021.2
20210927020522 53 0.0 0.0 0.00 0.00 0.00 91 1021.2
20210927015532 53 0.0 0.0 0.00 0.00 0.00 90 1021.1
20210927014522 54 0.0 0.0 0.00 0.00 0.00 90 1020.9
20210927013522 54 0.0 0.0 0.00 0.00 0.00 90 1021.0
20210927012522 54 0.0 0.0 0.00 0.00 0.00 89 1021.0
20210927011517 55 0.0 0.0 0.00 0.00 0.00 88 1020.8
20210927010522 55 0.0 0.0 0.00 0.00 0.00 88 1020.7
20210927005522 56 0.0 0.0 0.00 0.00 0.00 87 1020.7
20210927004522 56 0.0 0.0 0.00 0.00 0.00 86 1020.6
20210927003522 57 0.0 0.0 0.00 0.00 0.00 86 1020.5
20210927002522 57 0.0 0.0 0.00 0.00 0.00 84 1020.5
20210927001517 58 0.0 0.0 0.00 0.00 0.00 83 1020.3
20210927000517 58 0.0 0.0 0.00 0.00 0.00 81 1020.3
20210926235522 59 0.0 0.0 0.00 0.00 0.00 78 1020.4
20210926234522 60 0.0 0.0 0.00 0.00 0.00 77 1020.3
20210926233522 61 0.0 0.0 0.00 0.00 0.00 76 1020.3
20210926232522 62 0.0 0.0 0.00 0.00 0.00 74 1020.5
20210926231522 63 0.0 0.0 0.00 0.00 0.00 72 1020.5
20210926230517 63 0.0 0.0 0.00 0.00 0.00 72 1020.5
20210926225522 64 0.0 0.0 0.00 0.00 0.00 68 1020.5
20210926224522 66 0.0 0.0 0.00 0.00 0.00 65 1020.6
20210926223522 68 0.0 0.0 0.00 0.00 0.00 61 1020.7
20210926222521 71 0.0 0.0 0.00 0.00 0.00 53 1020.9
20210926221521 73 0.0 0.0 0.00 0.00 0.00 49 1021.0
20210926220517 74 0.0 3.5 0.00 0.00 0.00 47 1021.1
20210926215516 74 293 0.9 3.5 0.00 0.00 0.00 48 1021.2
20210926214521 74 0.0 3.5 0.00 0.00 0.00 48 1021.2
20210926213521 73 293 0.9 3.5 0.00 0.00 0.00 51 1021.2
20210926212521 74 293 0.9 3.5 0.00 0.00 0.00 49 1021.2
20210926211521 74 293 0.9 3.5 0.00 0.00 0.00 49 1021.3
20210926210521 74 293 1.7 6.1 0.00 0.00 0.00 48 1021.2
20210926205516 74 270 0.9 2.6 0.00 0.00 0.00 49 1021.3
20210926204521 74 270 1.7 4.3 0.00 0.00 0.00 48 1021.4
20210926203522 75 203 2.6 6.1 0.00 0.00 0.00 47 1021.5
20210926202521 74 293 1.7 5.2 0.00 0.00 0.00 49 1021.5
20210926201521 73 315 2.6 4.3 0.00 0.00 0.00 48 1021.4
20210926200521 74 293 1.7 4.3 0.00 0.00 0.00 47 1021.5
20210926195521 74 293 1.7 5.2 0.00 0.00 0.00 48 1021.5
20210926194516 73 338 3.5 6.1 0.00 0.00 0.00 48 1021.6
20210926193521 73 248 1.7 4.3 0.00 0.00 0.00 50 1021.7
20210926192521 73 0.0 3.5 0.00 0.00 0.00 47 1021.9
20210926191521 73 315 3.5 6.1 0.00 0.00 0.00 47 1021.9
20210926190521 73 338 1.7 5.2 0.00 0.00 0.00 51 1022.2
20210926185521 72 315 1.7 4.3 0.00 0.00 0.00 48 1022.2
20210926184516 73 203 2.6 4.3 0.00 0.00 0.00 48 1022.4
20210926183521 73 315 1.7 6.1 0.00 0.00 0.00 48 1022.7
20210926182521 72 315 2.6 8.7 0.00 0.00 0.00 51 1022.7
20210926181521 72 248 1.7 4.3 0.00 0.00 0.00 51 1022.8
20210926180521 72 248 1.7 4.3 0.00 0.00 0.00 53 1022.8
20210926175521 73 248 2.6 6.1 0.00 0.00 0.00 51 1023.0
20210926174521 72 293 0.9 3.5 0.00 0.00 0.00 53 1023.0
20210926173516 71 293 0.9 4.3 0.00 0.00 0.00 59 1023.1
20210926172521 70 315 1.7 6.1 0.00 0.00 0.00 55 1023.2
20210926171521 70 315 0.9 4.3 0.00 0.00 0.00 58 1023.2
20210926170521 70 293 1.7 7.8 0.00 0.00 0.00 59 1023.3
20210926165522 70 315 0.9 5.2 0.00 0.00 0.00 61 1023.4
20210926164521 70 0.0 0.9 0.00 0.00 0.00 62 1023.5
20210926163516 69 0.0 0.0 0.00 0.00 0.00 65 1023.5
20210926162516 69 0.0 0.0 0.00 0.00 0.00 63 1023.6
20210926161521 69 270 1.7 5.2 0.00 0.00 0.00 62 1023.7
20210926160521 69 0.0 0.0 0.00 0.00 0.00 64 1023.8
20210926155521 69 0.0 0.0 0.00 0.00 0.00 65 1023.9
20210926154519 68 0.0 5.2 0.00 0.00 0.00 66 1023.8
20210926153521 68 0.0 0.0 0.00 0.00 0.00 64 1024.0
20210926152516 68 0.0 0.0 0.00 0.00 0.00 67 1024.0
20210926151521 68 0.0 0.0 0.00 0.00 0.00 72 1024.0
20210926150521 68 0.0 0.0 0.00 0.00 0.00 72 1024.1
20210926145521 66 0.0 1.7 0.00 0.00 0.00 68 1023.9
20210926144521 66 0.0 0.0 0.00 0.00 0.00 77 1023.9
20210926143521 65 0.0 0.0 0.00 0.00 0.00 89 1023.8
20210926142516 63 0.0 0.0 0.00 0.00 0.00 91 1023.8
20210926141516 62 0.0 0.0 0.00 0.00 0.00 96 1023.8
20210926140521 61 0.0 0.0 0.00 0.00 0.00 98 1023.7
20210926135521 59 0.0 0.0 0.00 0.00 0.00 98 1023.6
20210926134521 59 0.0 0.0 0.00 0.00 0.00 98 1023.5
20210926133520 57 0.0 0.0 0.00 0.00 0.00 98 1023.4
20210926132521 56 0.0 0.0 0.00 0.00 0.00 98 1023.1
20210926131516 55 0.0 0.0 0.00 0.00 0.00 98 1023.0
20210926130521 54 0.0 0.0 0.00 0.00 0.00 98 1023.0
20210926125521 53 0.0 0.0 0.00 0.00 0.00 98 1022.9
20210926124521 52 0.0 0.0 0.00 0.00 0.00 98 1022.7
20210926123521 52 0.0 0.0 0.00 0.00 0.00 97 1022.6
20210926122521 51 0.0 0.0 0.00 0.00 0.00 98 1022.5
20210926121521 50 0.0 0.0 0.00 0.00 0.00 98 1022.4
20210926120515 50 0.0 0.0 0.00 0.00 0.00 97 1022.3
20210926115521 50 0.0 0.0 0.00 0.00 0.00 97 1022.4
20210926114521 50 0.0 0.0 0.00 0.00 0.00 97 1022.3
20210926113520 50 0.0 0.0 0.00 0.00 0.00 97 1022.0
20210926112520 50 0.0 0.0 0.00 0.00 0.00 97 1022.1
20210926111520 50 0.0 0.0 0.00 0.00 0.00 97 1022.2
20210926110515 50 0.0 0.0 0.00 0.00 0.00 97 1022.0
20210926105515 50 0.0 0.0 0.00 0.00 0.00 97 1022.1
20210926104520 50 0.0 0.0 0.00 0.00 0.00 97 1022.0
20210926103521 49 0.0 0.0 0.00 0.00 0.00 97 1021.9
20210926102520 50 0.0 0.0 0.00 0.00 0.00 97 1022.0
20210926101518 50 0.0 0.0 0.00 0.00 0.00 97 1021.7
20210926100520 50 0.0 0.0 0.00 0.00 0.00 97 1021.6
20210926095515 50 0.0 0.0 0.00 0.00 0.00 97 1021.5
20210926094520 50 0.0 0.0 0.00 0.00 0.00 97 1021.5
20210926093520 50 0.0 0.0 0.00 0.00 0.00 97 1021.6
20210926092520 50 0.0 0.0 0.00 0.00 0.00 97 1021.6
20210926091520 50 0.0 0.0 0.00 0.00 0.00 97 1021.5
20210926090520 50 0.0 0.0 0.00 0.00 0.00 97 1021.5
20210926085520 51 0.0 0.0 0.00 0.00 0.00 97 1021.4
20210926084515 51 0.0 0.0 0.00 0.00 0.00 97 1021.5
20210926083520 51 0.0 0.0 0.00 0.00 0.00 97 1021.5
20210926082520 51 0.0 0.0 0.00 0.00 0.00 97 1021.6
20210926081522 51 0.0 0.0 0.00 0.00 0.00 97 1021.5
20210926080522 51 0.0 0.0 0.00 0.00 0.00 97 1021.3
20210926075517 52 0.0 0.0 0.00 0.00 0.00 97 1021.3
20210926074522 52 0.0 0.0 0.00 0.00 0.00 97 1021.3
20210926073522 52 0.0 0.0 0.00 0.00 0.00 97 1021.3
20210926072522 52 0.0 0.0 0.00 0.00 0.00 97 1021.4